Tracking 29924 objects as of 4-Dec-2024
HD Live streaming from Space Station
objects crossing your sky now

XJS G

Track XJS G now!
10-day predictions


NORAD ID: 45611
Int'l Code: 2020-032A
Perigee: 424.0 km
Apogee: 431.5 km
Inclination: 35.0 °
Period: 93.0 minutes
Semi major axis: 6798 km
RCS: Unknown
Launch date: May 29, 2020
Source: People's Republic of China (PRC)
Launch site: Xichang Space Center, China (XSC)
Your satellite tracking list
Your tracking list is empty




NASA's NSSDC Master Catalog

Two Line Element Set (TLE):
1 45611U 20032A   24338.56899124  .00055967  00000-0  10080-2 0  9991
2 45611  35.0288  49.1918 0005500 179.0804 180.9929 15.48668283253498
Source of the keplerian elements: AFSPC